Weather reports worldwide

Advertisment
Genova/Sestri, Italy (16120): temperature & dewpoint: 18.03.2019 17:00:00 - 24.03.2019 17:00:00 (CET)Genova/Sestri, Italy (16120): wind speed: 18.03.2019 17:00:00 - 24.03.2019 17:00:00 (CET)Genova/Sestri, Italy (16120): wind direction: 18.03.2019 17:00:00 - 24.03.2019 17:00:00 (CET)Genova/Sestri, Italy (16120): reduced air pressure: 18.03.2019 17:00:00 - 24.03.2019 17:00:00 (CET)Genova/Sestri, Italy (16120): visibility: 18.03.2019 17:00:00 - 24.03.2019 17:00:00 (CET)
Date & Time tt [°C] td [°C] ff [km/h] ff [kn] dd ppp [hPa] vv [km]
24.03.2019 17:00:00 16,0 11,0 9 5 SSE - 10
24.03.2019 16:00:00 16,3 11,4 11 6 SE 1020,3 10
24.03.2019 15:00:00 17,0 11,0 5 3 S - 10
24.03.2019 14:00:00 17,0 9,0 5 3 S - 10
24.03.2019 13:00:00 16,7 9,8 5 3 S 1022,3 10
24.03.2019 12:00:00 17,0 8,0 11 6 SE - 10
24.03.2019 11:00:00 17,0 10,0 15 8 ESE - 10
24.03.2019 10:00:00 16,5 10,9 5 3 - 1022,8 10
24.03.2019 09:00:00 17,0 5,0 4 2 - - 10
24.03.2019 08:00:00 15,0 2,0 4 2 - - 10
24.03.2019 07:00:00 - - - - - - -
24.03.2019 06:00:00 12,0 2,0 5 3 NNW - 10
24.03.2019 05:00:00 13,0 3,0 0 0 N - 10
24.03.2019 04:00:00 12,4 2,0 4 2 W 1022,3 10
24.03.2019 03:00:00 15,0 2,0 8 4 N - 10
24.03.2019 02:00:00 13,0 4,0 5 3 NNW - 10
24.03.2019 01:00:00 13,2 4,7 4 2 - 1022,4 10
24.03.2019 00:00:00 13,0 7,0 2 1 - - 10
23.03.2019 23:00:00 13,0 10,0 4 2 - - 10
23.03.2019 22:00:00 13,0 10,2 4 2 - 1022,7 10
23.03.2019 21:00:00 13,0 11,0 4 2 - - 10
23.03.2019 20:00:00 14,0 10,0 0 0 N - 10
23.03.2019 19:00:00 13,6 10,6 5 3 SE 1022,2 10
23.03.2019 18:00:00 15,0 11,0 4 2 - - 10
23.03.2019 17:00:00 15,0 11,0 9 5 SE - 10
23.03.2019 16:00:00 15,9 11,2 9 5 SE 1022,4 10
23.03.2019 15:00:00 16,0 11,0 22 12 SE - 10
23.03.2019 14:00:00 17,0 10,0 21 11 SE - 10
23.03.2019 13:00:00 16,7 9,1 18 10 SE 1023,6 10
23.03.2019 12:00:00 16,0 10,0 22 12 SE - 10
23.03.2019 11:00:00 19,0 2,0 8 4 S - 10
23.03.2019 10:00:00 19,8 -2,8 9 5 - 1024,3 10
23.03.2019 09:00:00 17,0 -3,0 8 4 - - 10
23.03.2019 08:00:00 16,0 -4,0 5 3 SW - 10
23.03.2019 07:00:00 15,4 -6,1 4 2 - 1024,1 10
23.03.2019 06:00:00 16,0 -8,0 15 8 ENE - 10
23.03.2019 05:00:00 16,0 -9,0 16 9 ENE - 10
23.03.2019 04:00:00 16,3 -10,2 11 6 ENE 1024,0 10
23.03.2019 03:00:00 16,0 -8,0 11 6 ENE - 10
23.03.2019 02:00:00 17,0 -9,0 13 7 ENE - 10
23.03.2019 01:00:00 16,8 -8,9 16 9 ENE 1025,0 10
23.03.2019 00:00:00 18,0 -10,0 15 8 NE - 10
22.03.2019 23:00:00 17,0 -7,0 21 11 NE - 10
22.03.2019 22:00:00 16,4 -5,7 9 5 NNW 1025,4 10
22.03.2019 21:00:00 17,0 -4,0 18 10 ENE - 10
22.03.2019 20:00:00 18,0 -5,0 9 5 NE - 10
22.03.2019 19:00:00 18,4 -3,6 13 7 NNE 1025,3 10
22.03.2019 18:00:00 20,0 -3,0 16 9 NNW - 10
22.03.2019 17:00:00 21,0 -1,0 13 7 NW - 10
22.03.2019 16:00:00 21,5 -1,1 16 9 NNW 1025,5 30
22.03.2019 15:00:00 22,0 -2,0 13 7 N - 10
22.03.2019 14:00:00 21,0 -2,0 18 10 N - 10
22.03.2019 13:00:00 20,9 -3,0 18 10 NNE 1027,0 10
22.03.2019 12:00:00 19,0 -2,0 18 10 NE - 10
22.03.2019 11:00:00 17,0 -2,0 21 11 NE - 10
22.03.2019 10:00:00 15,8 -2,0 18 10 NNE 1028,5 10
22.03.2019 09:00:00 14,0 -2,0 22 12 NE - 10
22.03.2019 08:00:00 12,0 -3,0 22 12 NE - 10
22.03.2019 07:00:00 12,1 -3,3 21 11 NE 1028,2 10
22.03.2019 06:00:00 12,0 -4,0 22 12 NE - 10
22.03.2019 05:00:00 13,0 -4,0 16 9 NE - 10
22.03.2019 04:00:00 12,7 -3,9 16 9 ENE 1027,7 10
22.03.2019 03:00:00 13,0 -4,0 16 9 ENE - 10
22.03.2019 02:00:00 13,0 -4,0 13 7 NE - 10
22.03.2019 01:00:00 13,5 -5,0 16 9 NE 1028,4 10
22.03.2019 00:00:00 14,0 -5,0 22 12 NE - 10
21.03.2019 23:00:00 13,0 -4,0 16 9 NE - 10
21.03.2019 22:00:00 13,0 -2,9 18 10 NE 1028,1 10
21.03.2019 21:00:00 13,0 -3,0 13 7 NE - 10
21.03.2019 20:00:00 14,0 -3,0 16 9 N - 10
21.03.2019 19:00:00 14,8 -3,1 15 8 NNE 1027,6 10
21.03.2019 18:00:00 16,0 -3,0 11 6 N - 10
21.03.2019 17:00:00 17,0 -3,0 18 10 N - 10
21.03.2019 16:00:00 16,9 -1,9 22 12 N 1027,5 10
21.03.2019 15:00:00 17,0 -3,0 21 11 N - 10
21.03.2019 14:00:00 17,0 -3,0 21 11 N - 10
21.03.2019 13:00:00 16,1 -3,7 22 12 N 1029,1 10
21.03.2019 12:00:00 15,0 -3,0 21 11 N - 10
21.03.2019 11:00:00 14,0 -3,0 26 14 N - 10
21.03.2019 10:00:00 12,9 -3,8 29 16 N 1030,2 10
21.03.2019 09:00:00 12,0 -4,0 28 15 N - 10
21.03.2019 08:00:00 11,0 -4,0 28 15 NNE - 10
21.03.2019 07:00:00 11,0 -4,6 24 13 N 1029,2 10
21.03.2019 06:00:00 11,0 -5,0 26 14 NNE - 10
21.03.2019 05:00:00 12,0 -5,0 24 13 NNE - 10
21.03.2019 04:00:00 12,0 -5,5 24 13 NNE 1028,9 10
21.03.2019 03:00:00 12,0 -4,0 13 7 NNE - 10
21.03.2019 02:00:00 10,0 -3,0 5 3 NE - 10
21.03.2019 01:00:00 10,1 -3,5 15 8 E 1030,2 10
21.03.2019 00:00:00 11,0 -4,0 9 5 NE - 10
20.03.2019 23:00:00 11,0 -4,0 8 4 NE - 10
20.03.2019 22:00:00 11,2 -5,2 8 4 NE 1030,2 10
20.03.2019 21:00:00 12,0 -5,0 9 5 NE - 10
20.03.2019 20:00:00 13,0 -6,0 11 6 NNE - 10
20.03.2019 19:00:00 13,2 -5,3 15 8 N 1028,2 10
20.03.2019 18:00:00 14,0 -5,0 24 13 N - 10
20.03.2019 17:00:00 15,0 -3,0 24 13 N - 10
20.03.2019 16:00:00 15,0 -4,1 22 12 N 1026,9 10
20.03.2019 15:00:00 15,0 -5,0 28 15 N - 10
20.03.2019 14:00:00 15,0 -5,0 29 16 NNW - 10
20.03.2019 13:00:00 14,9 -4,1 24 13 N 1028,1 10
20.03.2019 12:00:00 14,0 -3,0 22 12 N - 10
20.03.2019 11:00:00 13,0 -3,0 21 11 N - 10
20.03.2019 10:00:00 12,5 -4,3 21 11 NNE 1029,2 10
20.03.2019 09:00:00 12,0 -4,0 16 9 NNE - 10
20.03.2019 08:00:00 10,0 -3,0 8 4 ENE - 10
20.03.2019 07:00:00 8,9 -3,4 9 5 NNE 1027,9 10
20.03.2019 06:00:00 9,0 -3,0 9 5 NE - 10
20.03.2019 05:00:00 9,0 -3,0 11 6 ENE - 10
20.03.2019 04:00:00 8,9 -3,4 11 6 ENE 1026,6 10
20.03.2019 03:00:00 10,0 -4,0 9 5 ENE - 10
20.03.2019 02:00:00 10,0 -4,0 11 6 NE - 10
20.03.2019 01:00:00 9,5 -3,5 5 3 ENE 1026,0 10
20.03.2019 00:00:00 10,0 -4,0 2 1 - - 10
19.03.2019 23:00:00 9,0 -3,0 0 0 N - 10
19.03.2019 22:00:00 9,7 -2,1 4 2 - 1025,5 10
19.03.2019 21:00:00 11,0 -4,0 5 3 NE - 10
19.03.2019 20:00:00 11,0 -5,0 9 5 E - 10
19.03.2019 19:00:00 12,9 -4,6 11 6 NNE 1023,2 10
19.03.2019 18:00:00 14,0 -6,0 13 7 NE - 10
19.03.2019 17:00:00 14,0 -6,0 15 8 NE - 10
19.03.2019 16:00:00 14,4 -4,3 9 5 NNE 1021,1 10
19.03.2019 15:00:00 15,0 -4,0 13 7 - - 10
19.03.2019 14:00:00 14,0 -4,0 11 6 N - 10
19.03.2019 13:00:00 13,6 -1,7 22 12 N 1021,5 10
19.03.2019 12:00:00 14,0 0,0 21 11 N - 10
19.03.2019 11:00:00 13,0 -2,0 22 12 N - 10
19.03.2019 10:00:00 12,4 -3,1 18 10 N 1021,5 10
19.03.2019 09:00:00 11,0 -1,0 13 7 NNE - 10
19.03.2019 08:00:00 8,0 0,0 16 9 NE - 10
19.03.2019 07:00:00 7,8 0,7 13 7 NE 1020,5 10
19.03.2019 06:00:00 8,0 1,0 16 9 NE - 10
19.03.2019 05:00:00 10,0 -2,0 15 8 NNE - 10
19.03.2019 04:00:00 9,6 -0,3 9 5 NE 1018,7 10
19.03.2019 03:00:00 10,0 0,0 13 7 NE - 10
19.03.2019 02:00:00 11,0 1,0 13 7 NE - 10
19.03.2019 01:00:00 10,9 0,7 13 7 NE 1018,3 10
19.03.2019 00:00:00 12,0 0,0 9 5 NE - 10
18.03.2019 23:00:00 12,0 -2,0 15 8 NE - 10
18.03.2019 22:00:00 12,4 -4,2 8 4 NNE 1017,1 10
18.03.2019 21:00:00 14,0 -7,0 5 3 ENE - 10
18.03.2019 20:00:00 15,0 -9,0 13 7 NNE - 10
18.03.2019 19:00:00 15,3 -8,9 16 9 NNE 1014,8 10
18.03.2019 18:00:00 16,0 -10,0 16 9 N - 10
18.03.2019 17:00:00 17,0 -11,0 18 10 NNW - 10

tt = temperature
td = dewpoint
ff = wind speed
dd = wind direction
ppp = reduced air pressure
vv = visibility

Next stations